Location: *
(49.3500°N, 12.6000°E)
Time: 22:30:54
(UTC+00:00)

NOSS 3-2 (A) - Pass Details

Date: 18 October 2019
Orbit: 816 x 1392 km, 63.4° (Epoch: 11 November)

Event Time Altitude Azimuth Distance (km) Brightness Sun altitude
Rises 19:49:03 0° 239° (WSW) 3,443 6.7 -34.8°
Reaches altitude 10° 19:51:28 10° 244° (WSW) 2,561 6.0 -35.1°
Enters shadow 19:56:02 47° 283° (WNW) 1,250 4.3 -35.8°
